Location: Erfurt
(50.9688°N, 11.0193°E)
Time: 07:19:24
(UTC+01:00)

ISS - Pass Details

Date: 13 November 2017
Orbit: 401 x 407 km, 51.6° (Epoch: 18 November)

Event Time Altitude Azimuth Distance (km) Brightness Sun altitude
Exits shadow 06:35:32 11° 269° (W) 1,418 -1.7 -8.5°
Maximum altitude 06:38:08 24° 214° (SW) 872 -2.3 -8.1°
Drops below altitude 10° 06:40:50 10° 157° (SSE) 1,450 -0.4 -7.7°
Sets 06:43:07 0° 144° (SE) 2,306 1.0 -7.4°
